Regional Weather Roundup
Issued by NWS Binghamton, NY

Home | Current Version | Previous Version | Text Only | Print | Product List | Glossary On
Versions: 1 2 3 4 5 6 7 8 9 10 11 12 13 14 15 16 17 18 19 20 21 22 23 24 25 26 27 28 29 30 31 32 33 34 35 36 37 38 39 40 41 42 43 44 45 46 47 48 49 50
000
ASUS41 KBGM 011010
RWRBGM
RWRBGM
BINGHAMTON REGIONAL WEATHER ROUNDUP
NATIONAL WEATHER SERVICE BINGHAMTON NY
600 AM EDT TUE SEP 01 2015

Note: "fair" indicates few or no clouds below 12,000 feet with no
significant weather and/or obstructions to visibility.

* = Station(s) that does not report precipitation, such as rain,
snow, etc, also no thunder or fog.

!NYZ009-015>018-022>025-036-037-044>046-055>057-062-011100
...CENTRAL NEW YORK...

CITY           SKY/WX    TMP DP  RH WIND       PRES   REMARKS
BINGHAMTON     CLEAR     66  65  96 CALM      30.09S FOG
CORTLAND       FOG       61  61 100 CALM      30.10S VSB<1/4
DANSVILLE      MOCLDY    63  61  93 SE5       30.09S
ELMIRA         FOG       62  62 100 W3        30.08R VSB 1/4
ITHACA         CLEAR     61  60  96 E5        30.10S FOG
HORNELL        CLOUDY    63  59  88 CALM        N/A  FOG
MONTICELLO     CLEAR     59  59 100 CALM      30.10R
NORWICH        FOG       61  61 100 CALM      30.10R VSB 1/4
ONEONTA        FOG       61  61 100 CALM      30.11S VSB 1/4
PENN YAN       CLEAR     65  63  93 SW3       30.08S FOG
ROME           CLOUDY    63  61  93 CALM      30.08S
SIDNEY         FOG       63  63 100 CALM      30.09S VSB 1/4
SYRACUSE       PTCLDY    64  63  96 SE5       30.05S
$$

!PAZ038>040-043-044-047-048-072-011100
...NORTHEAST PENNSYLVANIA...

CITY           SKY/WX    TMP DP  RH WIND       PRES   REMARKS
HAZLETON       FOG       61  61 100 CALM      30.13R VSB 1/2
SCRANTON       CLEAR     65  62  90 E6        30.07R
TOWANDA*       CLEAR     61  61 100 MISG      30.10R
$$
&&
KEY
WCI = WIND CHILL INDEX
VSB = VISIBILITY
HX  = HEAT INDEX
$$


USA.gov is the U.S. government's official web portal to all federal, state and local government web resources and services.